www.pogodaiklimat.ru
ПОГОДА в Мадисоне
Время
(UTC), дата
12:15 12.12
12:35 12.12
12:36 12.12
12:55 12.12
12:56 12.12
13:15 12.12
13:16 12.12
13:35 12.12
13:55 12.12
13:56 12.12
14:15 12.12
14:35 12.12
14:36 12.12
14:55 12.12
15:15 12.12
15:35 12.12
15:55 12.12
15:56 12.12
16:15 12.12
16:35 12.12
16:36 12.12
16:55 12.12
17:15 12.12
17:16 12.12
17:35 12.12
17:36 12.12
17:55 12.12
18:15 12.12
18:16 12.12
18:35 12.12
18:36 12.12
18:55 12.12
18:56 12.12
19:15 12.12
19:16 12.12
19:35 12.12
19:55 12.12
19:56 12.12
20:15 12.12
20:16 12.12
20:35 12.12
20:55 12.12
20:56 12.12
21:15 12.12
21:35 12.12
21:55 12.12
21:56 12.12
22:15 12.12
Ветер
(напр.,м/с)
Видим. Явления Облачность Т
(С)
Тd
(С)
f
(%)
Тe
(С)
Тes
(С)
Комфортность P
(гПа)
Po
(гПа)
Тmin
(С)
Tmax
(С)
R
(мм)
R24
(мм)
S
(см)
СВ 3 16 км неопределенные осадки 10/10 630 м -12.0 -14.0 85 -18 -18 979.5
С 3 8 км неопределенные осадки 10/10 630 м -12.0 -14.0 85 -19 -19 979.5
С 3 8 км неопределенные осадки 10/10 630 м -12.0 -14.0 85 -19 -19 979.5
С 4 8 км неопределенные осадки 10/10 630 м -12.0 -14.0 85 -19 -19 979.2
С 4 8 км слабый снег 10/10 630 м -12.0 -14.0 85 -19 -19 979.5
С 3 11 км неопределенные осадки 10/10 630 м -12.0 -14.0 85 -19 -19 979.2
С 3 11 км неопределенные осадки 10/10 630 м -12.0 -14.0 85 -19 -19 979.2
С 3 11 км неопределенные осадки 10/10 570 м -12.0 -14.0 85 -19 -19 979.2
С 3 16 км неопределенные осадки 10/10 570 м -12.0 -14.0 85 -18 -18 979.2
С 3 16 км неопределенные осадки 10/10 570 м -12.0 -14.0 85 -19 -19 979.2
С 3 16 км неопределенные осадки 10/10 570 м -12.0 -14.0 85 -19 -19 979.5
С 4 8 км неопределенные осадки 10/10 570 м -12.0 -14.0 85 -19 -19 979.8
С 4 8 км неопределенные осадки 10/10 570 м -12.0 -14.0 85 -20 -20 979.8
С 4 11 км неопределенные осадки 10/10 510 м -12.0 -14.0 85 -19 -19 979.5
С 4 11 км неопределенные осадки 10/10 510 м -12.0 -14.0 85 -19 -19 979.8
С 4 16 км неопределенные осадки 10/10 450 м -11.0 -14.0 78 -18 -18 979.8
СЗ 4 16 км неопределенные осадки 10/10 450 м -11.0 -14.0 78 -19 -19 980.1
СЗ 4 16 км неопределенные осадки 10/10 450 м -11.0 -14.0 78 -18 -18 980.1
С 4 11 км неопределенные осадки 10/10 450 м -11.0 -14.0 78 -19 -19 979.8
СЗ 4 11 км неопределенные осадки 10/10 510 м -11.0 -14.0 78 -19 -19 979.8
С 4 11 км неопределенные осадки 10/10 510 м -11.0 -14.0 78 -19 -19 979.8
СЗ 4 11 км неопределенные осадки 10/10 510 м -11.0 -14.0 78 -19 -19 979.5
СЗ 3 11 км неопределенные осадки 10/10 510 м -11.0 -14.0 78 -17 -17 979.2
СЗ 3 11 км неопределенные осадки 10/10 510 м -11.0 -14.0 78 -18 -18 979.2
СЗ 4 8 км неопределенные осадки 10/10 510 м -11.0 -14.0 78 -18 -18 979.2
СЗ 3 8 км неопределенные осадки 10/10 510 м -11.0 -14.0 78 -18 -18 979.2
СЗ 4 8 км неопределенные осадки 10/10 510 м -11.0 -14.0 78 -18 -18 978.8
С 4 6 км неопределенные осадки 10/10 390 м -10.0 -14.0 72 -18 -18 978.8
С 4 6 км неопределенные осадки 10/10 390 м -10.0 -14.0 72 -18 -18 978.8
СЗ 4 11 км неопределенные осадки 8/8 390 м -10.0 -14.0 72 -17 -17 979.2
СЗ 4 16 км неопределенные осадки 8/8 390 м -10.0 -14.0 72 -17 -17 979.2
СЗ 4 8 км неопределенные осадки 8/8 390 м -11.0 -14.0 78 -19 -18 979.2
СЗ 4 8 км неопределенные осадки 8/8 390 м -11.0 -14.0 78 -19 -18 979.2
СЗ 4 16 км 5/5 390 м -10.0 -14.0 72 -17 -17 979.2
СЗ 4 16 км 5/5 390 м -10.0 -14.0 72 -17 -17 979.2
СЗ 4 16 км 8/8 390 м -10.0 -14.0 72 -17 -17 978.8
СЗ 3 16 км 10/10 1200 м -10.0 -13.0 79 -17 -17 979.2
СЗ 3 16 км 10/10 1200 м -10.0 -13.0 79 -17 -17 979.2
СЗ 4 16 км 10/10 1200 м -10.0 -14.0 72 -17 -17 979.2
С 4 16 км 10/10 1200 м -10.0 -14.0 72 -17 -17 979.2
СЗ 4 16 км 10/10 1200 м -10.0 -14.0 72 -17 -17 979.5
СЗ 4 16 км неопределенные осадки 10/10 1200 м -10.0 -14.0 72 -17 -17 979.5
СЗ 4 16 км неопределенные осадки 10/10 1200 м -10.0 -14.0 72 -17 -17 979.5
С 4 16 км неопределенные осадки 10/10 1200 м -10.0 -13.0 79 -17 -17 979.5
СЗ 4 16 км 10/10 1200 м -10.0 -13.0 79 -17 -17 979.5
С 4 16 км 8/8 1200 м -11.0 -14.0 78 -18 -18 979.5
С 4 16 км 8/8 1200 м -11.0 -14.0 78 -18 -18 979.5
С 3 16 км 10/10 1200 м -11.0 -13.0 85 -18 -18 979.5
Местоположение метеостанции Madison-Lac Qui Parle County Airport: широта 44.9839 долгота -96.1788 высота над уровнем моря 328 м.
В архиве по умолчанию представлена погода в Мадисоне за последние 1-2 суток. Обновление информации о фактической погоде в базе происходит ежечасно! Архивные данные за месяц целиком и за предыдущие месяцы Вы можете получить, выбрав интересующий диапазон дат из раскрывающегося списка и нажав кнопку "Ввод!".
Внимание! Архив погоды МЕТАР в базе сайта по станциям, не включенным в климатический монитор, хранится не более 60 дней. Нет смысла пытаться выбрать более раннюю дату.
*Определитесь, кто Вы:
Внимание! Время в таблицах - всемирное. Для получения местного времени необходимо прибавить поправку, которая равна ч.
Смотрите также архив погоды в соседних городах и на ближайших метеорологических станциях:
Партнеры нашего сайта:      
Пояснения к столбцам:
  • Ветер - указаны скорость ветра в м/с - средняя за 10 мин, порывы в срок и между сроками (в фигурных скобках) и направление, откуда дует ветер: С - северный,
  • СВ - северо-восточный, В - восточный, ЮВ - юго-восточный, Ю - южный, ЮЗ - юго-западный, З - западный, СЗ - северо-западный.
  • Видимость - горизонтальная дальность видимости в метрах или километрах. При видимости от 1 до 10 км при отсутствии осадков обычно наблюдается дымка, при ухудшении видимости до 1 км и менее - туман. В сухую погоду видимость может ухудшаться дымом, пылью или мглою.
  • Явления - указаны атмосферные явления, наблюдавшиеся в срок или в последний час перед сроком; фигурными скобками обозначены явления, наблюдавшиеся между сроками (за 1-3 часа до срока); квадратными скобками обозначены град или гололедные отложения с указанием их диаметра в мм.
  • Облачность - указаны через наклонную черту общая и нижняя облачность в баллах и высота нижней границы облаков в метрах; квадратными скобками обозначены формы облаков: Ci - перистые, Cs - перисто-слоистые, Cc - перисто-кучевые, Ac - высококучевые, As - высокослоистые, Sc - слоисто-кучевые, Ns - слоисто-дождевые, Cu - кучевые, Cb - кучево-дождевые. Подробнее классификацию облаков см. в Атласе облаков (PDF).
  • T - Температура воздуха - температура, измеренная на высоте 2 м над землей.
  • Td - Температура точки росы - температура, при понижении до которой содержащийся в воздухе водяной пар достигнет насыщения.
  • f - Относительная влажность воздуха - влажноcть воздуха, измеренная на высоте 2 м над землей.
  • Te - Эффективная температура - температура, которую ощущает одетый по сезону человек в тени. Характеристика душности погоды. При расчете учитывается влияние влажности воздуха и скорости ветра на теплоощущения человека.
  • Tes - Эффективная температура на солнце - температура, которую ощущает человек, с поправкой на солнечный нагрев. Характеристика знойности погоды. Зависит от высоты солнца над горизонтом, облачности и скорости ветра. Ночью, в пасмурную погоду, а также при ветре 12 м/с и более поправка равна нулю.
  • P - Атмосферное давление - приведенное к уровню моря атмосферное давление.
  • Po - Атмосферное давление - измеренное на уровне метеостанции атмосферное давление.
  • Tmin - Минимальная температура - минимум температуры воздуха на высоте 2 м над землей.
  • Tmax - Максимальная температура - максимум температуры воздуха на высоте 2 м над землей.
  • R - Количество осадков - Количество выпавших осадков за период времени, мм. При наведении курсора мыши на число - период времени, за который выпало указанное количество осадков.
  • R24 - Количество осадков - Количество выпавших осадков за 24 часа, мм.
  • S - Снежный покров - Высота снежного покрова, см. При наведении курсора мыши на число - состояние снежного покрова и степень покрытия местности в баллах.